KK7RJD Weather Reports


time (UTC)temp
C
wind
direction
speed
KPH
gust
KPH
rain 1hr
cm
rain 24hr
cm
rain mn
cm
humidity
%
barometer
mb
20260906225351 27 29 4.8 6.4 0.00 0.00 0.00 36 1010.9
20260906224847 27 22 3.2 4.8 0.00 0.00 0.00 39 1010.9
20260906224343 27 25 6.4 9.7 0.00 0.00 0.00 36 1011.0
20260906223839 27 41 6.4 9.7 0.00 0.00 0.00 34 1011.2
20260906223336 27 20 8.0 11.3 0.00 0.00 0.00 37 1011.1
20260906222833 27 38 6.4 6.4 0.00 0.00 0.00 36 1011.5
20260906222332 27 16 8.0 11.3 0.00 0.00 0.00 36 1011.2
20260906221830 27 36 4.8 6.4 0.00 0.00 0.00 37 1011.2
20260906221330 27 30 3.2 4.8 0.00 0.00 0.00 36 1011.6
20260906220825 28 29 9.7 11.3 0.00 0.00 0.00 35 1011.7
20260906220321 28 33 8.0 11.3 0.00 0.00 0.00 35 1011.7
20260906215819 27 52 3.2 4.8 0.00 0.00 0.00 36 1012.0
20260906215314 27 44 6.4 9.7 0.00 0.00 0.00 35 1012.0
20260906214812 27 48 1.6 3.2 0.00 0.00 0.00 36 1011.9
20260906214307 27 10 9.7 11.3 0.00 0.00 0.00 33 1012.1
20260906213807 27 28 8.0 9.7 0.00 0.00 0.00 36 1012.0
20260906213307 28 25 6.4 6.4 0.00 0.00 0.00 35 1012.3
20260906212804 28 34 4.8 6.4 0.00 0.00 0.00 36 1012.4
20260906212300 28 18 6.4 6.4 0.00 0.00 0.00 37 1012.3
20260906211759 27 123 8.0 11.3 0.00 0.00 0.00 36 1012.1
20260906211254 27 23 8.0 9.7 0.00 0.00 0.00 39 1012.3
20260906210750 27 48 11.3 12.9 0.00 0.00 0.00 37 1012.5
20260906210244 27 77 9.7 11.3 0.00 0.00 0.00 37 1012.5
20260906205744 27 21 3.2 4.8 0.00 0.00 0.00 40 1012.6
20260906205241 27 101 3.2 3.2 0.00 0.00 0.00 41 1012.7
20260906204736 27 133 3.2 4.8 0.00 0.00 0.00 43 1012.7
20260906204236 27 31 9.7 11.3 0.00 0.00 0.00 41 1013.0
20260906203735 27 94 3.2 4.8 0.00 0.00 0.00 41 1013.2
20260906203230 27 37 4.8 4.8 0.00 0.00 0.00 44 1013.0
20260906202727 27 312 4.8 6.4 0.00 0.00 0.00 40 1013.2
20260906202226 27 36 1.6 1.6 0.00 0.00 0.00 43 1013.4
20260906201721 26 79 0.0 1.6 0.00 0.00 0.00 41 1013.4
20260906201221 26 38 6.4 6.4 0.00 0.00 0.00 45 1013.4
20260906200717 26 32 3.2 4.8 0.00 0.00 0.00 44 1013.4
20260906200213 26 31 4.8 6.4 0.00 0.00 0.00 41 1013.5
20260906195708 26 65 6.4 9.7 0.00 0.00 0.00 46 1013.8
20260906195204 26 276 3.2 3.2 0.00 0.00 0.00 43 1013.7
20260906194700 25 59 9.7 11.3 0.00 0.00 0.00 44 1013.8
20260906194155 25 129 9.7 14.5 0.00 0.00 0.00 44 1013.8
20260906193650 25 25 9.7 11.3 0.00 0.00 0.00 42 1014.0
20260906193145 25 48 3.2 3.2 0.00 0.00 0.00 45 1014.2
20260906192641 25 24 4.8 9.7 0.00 0.00 0.00 44 1014.1
20260906192140 25 66 3.2 3.2 0.00 0.00 0.00 46 1014.2
20260906191635 25 41 8.0 11.3 0.00 0.00 0.00 47 1014.5
20260906191134 25 43 4.8 4.8 0.00 0.00 0.00 45 1014.5
20260906190634 25 79 6.4 6.4 0.00 0.00 0.00 47 1014.6
20260906190129 25 99 4.8 6.4 0.00 0.00 0.00 48 1014.8
20260906185627 24 71 6.4 6.4 0.00 0.00 0.00 48 1014.9
20260906185127 25 84 6.4 11.3 0.00 0.00 0.00 48 1015.1
20260906184622 24 140 3.2 4.8 0.00 0.00 0.00 50 1015.1
20260906184118 24 60 3.2 4.8 0.00 0.00 0.00 51 1015.2
20260906183613 24 49 3.2 3.2 0.00 0.00 0.00 47 1015.2
20260906183109 23 53 8.0 9.7 0.00 0.00 0.00 48 1015.3
20260906182603 23 30 4.8 6.4 0.00 0.00 0.00 51 1015.4
20260906182100 23 111 3.2 3.2 0.00 0.00 0.00 53 1015.7
20260906181555 23 103 0.0 1.6 0.00 0.00 0.00 52 1015.6
20260906181051 23 30 3.2 4.8 0.00 0.00 0.00 52 1015.7
20260906180551 23 265 1.6 1.6 0.00 0.00 0.00 52 1015.9
20260906180050 23 47 3.2 4.8 0.00 0.00 0.00 50 1016.0
20260906175549 23 6 1.6 1.6 0.00 0.00 0.00 53 1016.1
20260906175044 23 54 3.2 4.8 0.00 0.00 0.00 51 1016.1
20260906174542 23 208 1.6 1.6 0.00 0.00 0.00 51 1016.1
20260906174038 22 25 3.2 3.2 0.00 0.00 0.00 53 1016.4
20260906173538 22 46 3.2 4.8 0.00 0.00 0.00 54 1016.2
20260906173034 23 96 8.0 9.7 0.00 0.00 0.00 54 1016.4
20260906172529 23 288 0.0 0.0 0.00 0.00 0.00 52 1016.5
20260906172024 23 158 0.0 0.0 0.00 0.00 0.00 55 1016.6
20260906171519 23 39 3.2 4.8 0.00 0.00 0.00 53 1016.8
20260906171015 22 167 3.2 3.2 0.00 0.00 0.00 55 1016.7
20260906170511 22 303 1.6 3.2 0.00 0.00 0.00 57 1016.6
20260906170009 22 81 4.8 4.8 0.00 0.00 0.00 56 1016.9
20260906165507 22 61 3.2 4.8 0.00 0.00 0.00 54 1016.9
20260906165001 22 42 0.0 1.6 0.00 0.00 0.00 58 1016.7
20260906164500 22 154 1.6 1.6 0.00 0.00 0.00 57 1016.7
20260906163957 22 174 0.0 0.0 0.00 0.00 0.00 55 1017.0
20260906163452 22 168 3.2 3.2 0.00 0.00 0.00 53 1017.0
20260906162950 22 182 1.6 1.6 0.00 0.00 0.00 56 1017.1
20260906162449 22 209 1.6 1.6 0.00 0.00 0.00 54 1017.1
20260906161944 22 179 0.0 0.0 0.00 0.00 0.00 54 1017.1
20260906161444 21 178 0.0 0.0 0.00 0.00 0.00 56 1017.1
20260906160943 21 88 1.6 3.2 0.00 0.00 0.00 58 1017.0
20260906160442 20 147 0.0 1.6 0.00 0.00 0.00 58 1017.1
20260906155941 20 110 0.0 1.6 0.00 0.00 0.00 59 1017.0
20260906155439 21 71 3.2 3.2 0.00 0.00 0.00 57 1017.1
20260906154936 20 158 0.0 0.0 0.00 0.00 0.00 57 1017.1
20260906154431 20 227 1.6 1.6 0.00 0.00 0.00 58 1017.3
20260906153930 20 125 0.0 1.6 0.00 0.00 0.00 59 1017.3
20260906153428 20 319 1.6 3.2 0.00 0.00 0.00 57 1017.1
20260906152924 20 230 1.6 1.6 0.00 0.00 0.00 61 1017.3
20260906152424 20 295 1.6 3.2 0.00 0.00 0.00 60 1017.1
20260906151923 20 49 3.2 3.2 0.00 0.00 0.00 58 1017.1
20260906151418 19 163 3.2 3.2 0.00 0.00 0.00 64 1017.4
20260906150915 20 43 3.2 4.8 0.00 0.00 0.00 63 1017.4
20260906150415 19 204 1.6 1.6 0.00 0.00 0.00 61 1017.4
20260906145909 19 273 3.2 4.8 0.00 0.00 0.00 61 1017.5
20260906145408 19 168 0.0 0.0 0.00 0.00 0.00 59 1017.6
20260906144902 18 206 0.0 1.6 0.00 0.00 0.00 61 1017.5
20260906144358 18 145 0.0 1.6 0.00 0.00 0.00 63 1017.8
20260906143853 18 147 0.0 0.0 0.00 0.00 0.00 62 1017.8
20260906143348 17 164 0.0 1.6 0.00 0.00 0.00 62 1017.8
20260906142844 17 243 0.0 0.0 0.00 0.00 0.00 63 1017.6
20260906142339 17 238 3.2 3.2 0.00 0.00 0.00 64 1017.7
20260906141838 17 182 1.6 1.6 0.00 0.00 0.00 65 1017.8
20260906141333 16 218 0.0 0.0 0.00 0.00 0.00 66 1017.8
20260906140833 16 179 0.0 0.0 0.00 0.00 0.00 67 1017.7
20260906140327 16 169 0.0 0.0 0.00 0.00 0.00 69 1017.8
20260906135824 15 177 0.0 0.0 0.00 0.00 0.00 69 1017.6
20260906135320 15 185 0.0 0.0 0.00 0.00 0.00 71 1017.6
20260906134815 15 223 0.0 1.6 0.00 0.00 0.00 73 1017.5
20260906134310 14 222 1.6 3.2 0.00 0.00 0.00 73 1017.3
20260906133806 13 207 0.0 0.0 0.00 0.00 0.00 75 1017.7
20260906133301 13 220 1.6 3.2 0.00 0.00 0.00 75 1017.6
20260906132756 12 277 1.6 1.6 0.00 0.00 0.00 77 1017.5
20260906132252 12 261 0.0 1.6 0.00 0.00 0.00 78 1017.7
20260906131747 12 221 0.0 0.0 0.00 0.00 0.00 78 1017.6
20260906131242 12 286 1.6 1.6 0.00 0.00 0.00 79 1017.6
20260906130738 12 199 0.0 0.0 0.00 0.00 0.00 78 1017.5
20260906130238 12 203 0.0 0.0 0.00 0.00 0.00 79 1017.5
20260906125736 12 210 0.0 0.0 0.00 0.00 0.00 79 1017.5
20260906125235 12 201 0.0 0.0 0.00 0.00 0.00 79 1017.5
20260906124729 12 191 0.0 0.0 0.00 0.00 0.00 77 1017.6
20260906124225 12 188 0.0 0.0 0.00 0.00 0.00 75 1017.7
20260906123724 13 178 0.0 0.0 0.00 0.00 0.00 75 1017.6
20260906123220 13 254 0.0 0.0 0.00 0.00 0.00 75 1017.4
20260906122719 13 323 1.6 3.2 0.00 0.00 0.00 75 1017.5
20260906122214 12 202 0.0 0.0 0.00 0.00 0.00 76 1017.5
20260906121710 13 193 0.0 0.0 0.00 0.00 0.00 75 1017.7
20260906121207 13 296 1.6 1.6 0.00 0.00 0.00 75 1017.7
20260906120702 13 251 0.0 0.0 0.00 0.00 0.00 76 1017.6
20260906120159 13 348 1.6 1.6 0.00 0.00 0.00 76 1017.7
20260906115653 13 169 0.0 0.0 0.00 0.00 0.00 77 1017.6
20260906115149 12 243 0.0 0.0 0.00 0.00 0.00 78 1017.7
20260906114648 12 203 0.0 0.0 0.00 0.00 0.00 78 1017.6
20260906114143 13 192 0.0 0.0 0.00 0.00 0.00 77 1017.4
20260906113637 13 317 0.0 0.0 0.00 0.00 0.00 78 1017.4
20260906113132 13 269 0.0 0.0 0.00 0.00 0.00 76 1017.4
20260906112631 13 190 0.0 0.0 0.00 0.00 0.00 77 1017.7
20260906112129 13 198 0.0 0.0 0.00 0.00 0.00 76 1017.6
20260906111628 13 176 0.0 0.0 0.00 0.00 0.00 75 1017.4
20260906111123 13 210 0.0 0.0 0.00 0.00 0.00 75 1017.5
20260906110618 13 218 3.2 3.2 0.00 0.00 0.00 75 1017.5
20260906110118 13 201 0.0 0.0 0.00 0.00 0.00 74 1017.4
20260906105612 14 212 0.0 0.0 0.00 0.00 0.00 74 1017.4
20260906105108 14 264 0.0 0.0 0.00 0.00 0.00 73 1017.4
20260906104607 15 212 0.0 0.0 0.00 0.00 0.00 71 1017.5
20260906104101 15 256 0.0 0.0 0.00 0.00 0.00 71 1017.6
20260906103600 15 311 3.2 3.2 0.00 0.00 0.00 69 1017.3
20260906103055 15 216 1.6 3.2 0.00 0.00 0.00 69 1017.5
20260906102555 15 183 0.0 0.0 0.00 0.00 0.00 69 1017.6
20260906102051 15 146 0.0 0.0 0.00 0.00 0.00 67 1017.3
20260906101551 16 300 1.6 1.6 0.00 0.00 0.00 67 1017.3
20260906101045 15 66 0.0 0.0 0.00 0.00 0.00 67 1017.3
20260906100541 16 172 0.0 0.0 0.00 0.00 0.00 66 1017.6
20260906100042 16 248 1.6 1.6 0.00 0.00 0.00 66 1017.4
20260906095536 16 166 0.0 0.0 0.00 0.00 0.00 65 1016.9
20260906095032 16 130 1.6 1.6 0.00 0.00 0.00 65 1017.0
20260906094530 16 163 0.0 0.0 0.00 0.00 0.00 64 1017.1
20260906094026 16 297 0.0 0.0 0.00 0.00 0.00 63 1016.8
20260906093522 17 172 0.0 0.0 0.00 0.00 0.00 62 1017.1
20260906093017 17 286 1.6 1.6 0.00 0.00 0.00 61 1016.9
20260906092516 17 303 1.6 3.2 0.00 0.00 0.00 60 1016.8
20260906092012 17 26 3.2 3.2 0.00 0.00 0.00 59 1016.6
20260906091508 18 37 6.4 6.4 0.00 0.00 0.00 59 1016.7
20260906091004 18 14 6.4 9.7 0.00 0.00 0.00 58 1016.8
20260906090459 18 312 1.6 1.6 0.00 0.00 0.00 59 1016.8
20260906085959 17 237 0.0 1.6 0.00 0.00 0.00 58 1016.8
20260906085458 17 3 0.0 1.6 0.00 0.00 0.00 60 1016.9
20260906084957 17 196 0.0 1.6 0.00 0.00 0.00 57 1017.5
20260906084452 17 239 3.2 3.2 0.00 0.00 0.00 56 1017.3
20260906083951 17 229 0.0 1.6 0.00 0.00 0.00 58 1017.3
20260906083447 16 309 6.4 6.4 0.00 0.00 0.00 59 1017.3
20260906082946 17 210 0.0 0.0 0.00 0.00 0.00 59 1016.7
20260906082441 17 0 3.2 3.2 0.00 0.00 0.00 58 1016.6
20260906081937 17 2 3.2 3.2 0.00 0.00 0.00 58 1016.7
20260906081432 17 7 3.2 3.2 0.00 0.00 0.00 57 1016.9
20260906080928 17 217 0.0 0.0 0.00 0.00 0.00 57 1016.9
20260906080425 17 232 1.6 3.2 0.00 0.00 0.00 57 1016.8
20260906075924 17 24 0.0 3.2 0.00 0.00 0.00 55 1016.9
20260906075420 17 169 6.4 6.4 0.00 0.00 0.00 54 1017.1
20260906074914 17 242 1.6 1.6 0.00 0.00 0.00 55 1016.8
20260906074408 17 89 1.6 1.6 0.00 0.00 0.00 55 1016.7
20260906073907 17 340 8.0 11.3 0.00 0.00 0.00 54 1016.4
20260906073402 17 328 11.3 12.9 0.00 0.00 0.00 55 1016.8
20260906072859 17 309 4.8 6.4 0.00 0.00 0.00 55 1016.8
20260906072354 16 261 1.6 1.6 0.00 0.00 0.00 56 1016.7
20260906071850 16 145 1.6 1.6 0.00 0.00 0.00 57 1016.9
20260906071345 17 147 4.8 4.8 0.00 0.00 0.00 56 1016.8
20260906070841 17 143 3.2 4.8 0.00 0.00 0.00 56 1016.5
20260906070337 17 164 0.0 0.0 0.00 0.00 0.00 54 1016.7
20260906065832 17 218 1.6 1.6 0.00 0.00 0.00 54 1016.5
20260906065326 17 261 0.0 1.6 0.00 0.00 0.00 53 1016.6
20260906064822 17 277 6.4 6.4 0.00 0.00 0.00 52 1016.4
20260906064319 17 299 3.2 4.8 0.00 0.00 0.00 52 1016.5
20260906063818 18 307 8.0 11.3 0.00 0.00 0.00 53 1016.2
20260906063314 18 9 14.5 16.1 0.00 0.00 0.00 52 1016.5
20260906062809 18 338 9.7 12.9 0.00 0.00 0.00 52 1016.5
20260906062308 18 322 8.0 9.7 0.00 0.00 0.00 52 1016.4
20260906061804 18 306 9.7 11.3 0.00 0.00 0.00 51 1016.4
20260906061300 18 332 9.7 11.3 0.00 0.00 0.00 52 1016.1
20260906060755 18 310 14.5 16.1 0.00 0.00 0.00 51 1016.5
20260906060252 18 314 12.9 16.1 0.00 0.00 0.00 51 1016.1
20260906055748 18 330 14.5 17.7 0.00 0.00 0.00 51 1016.0
20260906055243 18 338 14.5 17.7 0.00 0.00 0.00 50 1016.0
20260906054738 18 337 14.5 16.1 0.00 0.00 0.00 50 1016.0
20260906054233 18 1 14.5 17.7 0.00 0.00 0.00 50 1016.4
20260906053730 18 309 14.5 16.1 0.00 0.00 0.00 49 1016.1
20260906053226 18 290 6.4 9.7 0.00 0.00 0.00 49 1016.2
20260906052720 18 350 12.9 14.5 0.00 0.00 0.00 48 1016.0
20260906052217 18 320 12.9 14.5 0.00 0.00 0.00 49 1015.9
20260906051714 18 343 11.3 16.1 0.00 0.00 0.00 48 1016.2
20260906051213 18 332 12.9 14.5 0.00 0.00 0.00 48 1016.4
20260906050708 19 339 9.7 11.3 0.00 0.00 0.00 47 1016.4
20260906050203 19 353 14.5 16.1 0.00 0.00 0.00 47 1016.4
20260906045701 19 344 11.3 12.9 0.00 0.00 0.00 47 1016.4
20260906045157 19 345 17.7 20.9 0.00 0.00 0.00 46 1016.2
20260906044653 19 331 9.7 14.5 0.00 0.00 0.00 46 1016.4
20260906044148 20 333 11.3 14.5 0.00 0.00 0.00 45 1016.4
20260906043644 20 331 12.9 17.7 0.00 0.00 0.00 45 1016.6
20260906043139 20 310 9.7 14.5 0.00 0.00 0.00 46 1016.2
20260906042639 20 318 4.8 4.8 0.00 0.00 0.00 45 1016.4
20260906042133 19 352 17.7 20.9 0.00 0.00 0.00 45 1016.4
20260906041630 19 6 16.1 17.7 0.00 0.00 0.00 46 1016.4
20260906041130 19 323 9.7 11.3 0.00 0.00 0.00 46 1016.4
20260906040625 19 352 9.7 12.9 0.00 0.00 0.00 46 1016.2
20260906040120 19 319 8.0 9.7 0.00 0.00 0.00 46 1016.2
20260906035615 20 344 14.5 16.1 0.00 0.00 0.00 45 1016.0
20260906035112 20 357 14.5 17.7 0.00 0.00 0.00 45 1016.1
20260906034611 20 324 11.3 12.9 0.00 0.00 0.00 45 1016.0
20260906034106 20 356 11.3 12.9 0.00 0.00 0.00 45 1016.2
20260906033601 20 314 9.7 11.3 0.00 0.00 0.00 45 1016.4
20260906033057 20 346 12.9 14.5 0.00 0.00 0.00 44 1016.4
20260906032554 20 322 9.7 11.3 0.00 0.00 0.00 44 1016.2
20260906032053 20 321 9.7 11.3 0.00 0.00 0.00 44 1016.4
20260906031549 20 322 9.7 14.5 0.00 0.00 0.00 44 1016.0
20260906031044 20 353 12.9 17.7 0.00 0.00 0.00 43 1016.1
20260906030543 20 329 9.7 12.9 0.00 0.00 0.00 43 1016.1
20260906030044 20 0 11.3 16.1 0.00 0.00 0.00 42 1015.9
20260906025544 20 358 12.9 14.5 0.00 0.00 0.00 42 1015.9
20260906025042 20 358 11.3 14.5 0.00 0.00 0.00 42 1016.0
20260906024537 20 343 11.3 14.5 0.00 0.00 0.00 42 1015.8
20260906024037 21 335 6.4 9.7 0.00 0.00 0.00 42 1015.9
20260906023533 21 325 11.3 14.5 0.00 0.00 0.00 41 1015.7
20260906023028 21 317 12.9 17.7 0.00 0.00 0.00 41 1015.4
20260906022523 21 321 8.0 9.7 0.00 0.00 0.00 41 1015.7
20260906022019 21 346 12.9 14.5 0.00 0.00 0.00 41 1015.7
20260906021514 21 13 11.3 14.5 0.00 0.00 0.00 40 1015.4
20260906021008 21 7 12.9 14.5 0.00 0.00 0.00 40 1015.7
20260906020507 21 300 9.7 12.9 0.00 0.00 0.00 41 1015.4
20260906020008 21 354 14.5 16.1 0.00 0.00 0.00 40 1015.6
20260906015506 21 354 9.7 12.9 0.00 0.00 0.00 40 1015.6
20260906015001 22 343 11.3 27.4 0.00 0.00 0.00 40 1015.6
20260906014501 22 350 11.3 12.9 0.00 0.00 0.00 40 1015.7
20260906013957 22 0 12.9 16.1 0.00 0.00 0.00 40 1015.6
20260906013452 22 341 14.5 14.5 0.00 0.00 0.00 40 1015.6
20260906012948 22 327 6.4 9.7 0.00 0.00 0.00 43 1015.6
20260906012448 22 341 9.7 9.7 0.00 0.00 0.00 42 1015.8
20260906011948 22 353 9.7 12.9 0.00 0.00 0.00 42 1015.6
20260906011443 22 322 9.7 11.3 0.00 0.00 0.00 43 1015.6
20260906010938 22 336 8.0 9.7 0.00 0.00 0.00 43 1015.6
20260906010434 22 0 8.0 9.7 0.00 0.00 0.00 44 1015.7
20260906005930 22 320 6.4 6.4 0.00 0.00 0.00 44 1015.7
20260906005430 22 338 8.0 11.3 0.00 0.00 0.00 42 1015.4
20260906004928 23 327 9.7 14.5 0.00 0.00 0.00 42 1015.4
20260906004422 23 311 9.7 12.9 0.00 0.00 0.00 41 1015.4
20260906003918 23 318 14.5 16.1 0.00 0.00 0.00 40 1015.6
20260906003413 23 339 9.7 11.3 0.00 0.00 0.00 41 1015.4
20260906002909 23 12 9.7 12.9 0.00 0.00 0.00 41 1015.6
20260906002408 23 357 11.3 12.9 0.00 0.00 0.00 40 1015.4
20260906001904 23 326 12.9 17.7 0.00 0.00 0.00 37 1015.6
20260906001359 24 325 11.3 12.9 0.00 0.00 0.00 39 1015.4
20260906000854 24 339 11.3 12.9 0.00 0.00 0.00 36 1015.4
20260906000355 24 341 11.3 12.9 0.00 0.00 0.00 38 1015.4
20260905235848 25 333 17.7 20.9 0.00 0.00 0.00 36 1015.7
20260905235343 25 347 9.7 12.9 0.00 0.00 0.00 39 1015.6
20260905234839 25 339 11.3 14.5 0.00 0.00 0.00 37 1015.6
20260905234334 25 351 17.7 24.1 0.00 0.00 0.00 35 1015.4
20260905233829 25 2 11.3 16.1 0.00 0.00 0.00 38 1015.6
20260905233324 25 336 12.9 14.5 0.00 0.00 0.00 38 1015.6
20260905232823 25 346 11.3 12.9 0.00 0.00 0.00 37 1015.6
20260905232320 26 315 14.5 14.5 0.00 0.00 0.00 36 1015.6
20260905231815 26 335 14.5 17.7 0.00 0.00 0.00 35 1015.6
20260905231310 26 338 9.7 12.9 0.00 0.00 0.00 38 1015.6
20260905230806 26 318 9.7 11.3 0.00 0.00 0.00 37 1015.4
20260905230304 26 326 12.9 14.5 0.00 0.00 0.00 36 1015.6
20260905225804 26 307 11.3 14.5 0.00 0.00 0.00 36 1015.7